Location: Newark
(7.1028°S, 35.3258°W)
Time: 21:54:00
(UTC+00:00)

Transit 2A Rocket - Visible Passes

Search period start: 28 February 2020 00:00
Search period end: 09 March 2020 00:00
Orbit: 591 x 912 km, 66.7° (Epoch: 27 February)

Date Brightness Start Highest point End Pass type
(mag) Time Alt. Az. Time Alt. Az. Time Alt. Az.
28 Feb 5.9 21:50:10 10° SW 21:54:21 38° WNW 21:58:20 10° N visible
29 Feb 4.5 21:07:22 10° SSW 21:11:55 85° ESE 21:16:12 10° NNE visible
02 Mar 7.1 21:25:42 10° WSW 21:29:07 22° WNW 21:32:26 10° NNW visible
04 Mar 8.0 07:33:57 10° NNE 07:37:41 17° ENE 07:41:27 10° ESE visible
05 Mar 7.7 21:02:06 10° W 21:03:53 12° WNW 21:05:40 10° NW visible
06 Mar 6.3 07:49:12 10° N 07:54:57 52° ENE 08:00:53 10° SE visible
07 Mar 7.4 07:07:37 10° NNE 07:12:32 27° ENE 07:17:32 10° SE visible
08 Mar 8.1 06:27:24 10° NE 06:30:06 13° ENE 06:32:48 10° E visible
08 Mar 5.6 08:06:31 10° NW 08:12:22 53° WSW 08:18:18 10° S visible
